Location: Hamburg
(53.5500°N, 10.0000°E)
Time: 15:52:30
(UTC+02:00)

A-11 Canister half - All Passes

Search period start: 26 April 2017 00:00
Search period end: 06 May 2017 00:00
Orbit: 1526 x 1683 km, 47.3° (Epoch: 24 April)

Date Brightness Start Highest point End Pass type
(mag) Time Alt. Az. Time Alt. Az. Time Alt. Az.
26 Apr - 02:43:26 10° SSW 02:51:36 30° SE 02:59:54 10° E visible
26 Apr - 04:45:38 10° WSW 04:55:15 55° SSE 05:05:02 10° E visible
26 Apr - 06:49:48 10° W 06:59:39 61° S 07:09:34 10° ESE daylight
26 Apr - 08:54:33 10° W 09:03:45 41° SSW 09:12:54 10° SE daylight
26 Apr - 11:01:04 10° W 11:06:40 17° SW 11:12:15 10° SSW daylight
27 Apr - 02:22:04 10° SSW 02:30:05 29° SE 02:38:14 10° E visible
27 Apr - 04:24:06 10° SW 04:33:40 54° SSE 04:43:25 10° E visible
27 Apr - 06:28:13 10° W 06:38:04 61° S 06:48:00 10° ESE daylight
27 Apr - 08:32:56 10° W 08:42:11 42° SSW 08:51:25 10° SE daylight
27 Apr - 10:39:14 10° W 10:45:10 17° SW 10:51:05 10° SSW daylight
28 Apr - 02:00:42 10° SSW 02:08:33 28° SE 02:16:34 10° E visible
28 Apr - 04:02:34 10° SW 04:12:05 53° SSE 04:21:48 10° E visible
28 Apr - 06:06:38 10° W 06:16:28 62° S 06:26:24 10° ESE daylight
28 Apr - 08:11:20 10° W 08:20:37 43° SSW 08:29:56 10° SE daylight
28 Apr - 10:17:27 10° W 10:23:40 18° SW 10:29:53 10° SSW daylight
29 Apr - 01:39:20 10° S 01:47:02 27° SE 01:54:53 10° E visible
29 Apr - 03:41:03 10° SW 03:50:31 52° SSE 04:00:11 10° E visible
29 Apr - 05:45:03 10° W 05:54:52 62° S 06:04:49 10° ESE daylight
29 Apr - 07:49:43 10° W 07:59:04 44° SSW 08:08:25 10° SE daylight
29 Apr - 09:55:41 10° W 10:02:10 19° SW 10:08:39 10° S daylight
30 Apr - 01:18:00 10° S 01:25:31 26° SE 01:33:12 10° E visible
30 Apr - 03:19:32 10° SW 03:28:56 51° SSE 03:38:34 10° E visible
30 Apr - 05:23:28 10° W 05:33:17 62° S 05:43:13 10° ESE daylight
30 Apr - 07:28:06 10° W 07:37:29 46° SSW 07:46:55 10° SE daylight
30 Apr - 09:33:56 10° W 09:40:40 20° SW 09:47:24 10° S daylight
01 May - 00:56:41 10° S 01:04:01 25° SE 01:11:29 10° E visible
01 May - 02:58:01 10° SW 03:07:22 50° SSE 03:16:57 10° E visible
01 May - 05:01:53 10° WSW 05:11:40 62° S 05:21:37 10° ESE visible
01 May - 07:06:30 10° W 07:15:55 47° SSW 07:25:24 10° SE daylight
01 May - 09:12:12 10° W 09:19:10 21° SW 09:26:07 10° S daylight
02 May - 00:35:22 10° S 00:42:31 24° SE 00:49:47 10° E visible
02 May - 02:36:31 10° SW 02:45:48 49° SSE 02:55:20 10° E visible
02 May - 04:40:19 10° WSW 04:50:05 62° S 05:00:02 10° ESE visible
02 May - 06:44:55 10° W 06:54:21 48° SSW 07:03:52 10° SE daylight
02 May - 08:50:29 10° W 08:57:39 23° SW 09:04:50 10° S daylight
03 May - 00:14:05 10° S 00:21:00 22° SE 00:28:04 10° E visible
03 May - 02:15:01 10° SW 02:24:14 48° SSE 02:33:42 10° E visible
03 May - 04:18:44 10° WSW 04:28:29 62° S 04:38:25 10° ESE visible
03 May - 06:23:19 10° W 06:32:47 49° SSW 06:42:21 10° SE daylight
03 May - 08:28:46 10° W 08:36:08 24° SW 08:43:31 10° S daylight
03 May - 23:52:49 10° S 23:59:30 21° SE 00:06:19 10° E visible
04 May - 01:53:31 10° SW 02:02:41 47° SSE 02:12:06 10° E visible
04 May - 03:57:11 10° WSW 04:06:53 62° S 04:16:49 10° ESE visible
04 May - 06:01:43 10° W 06:11:12 50° SSW 06:20:49 10° SE daylight
04 May - 08:07:05 10° W 08:14:37 25° SW 08:22:10 10° S daylight
04 May - 23:31:34 10° S 23:38:01 20° SE 23:44:35 10° E visible
05 May - 01:32:02 10° SW 01:41:07 46° SSE 01:50:28 10° E visible
05 May - 03:35:37 10° WSW 03:45:18 62° S 03:55:13 10° E visible
05 May - 05:40:07 10° W 05:49:38 51° SSW 05:59:16 10° SE daylight
05 May - 07:45:25 10° W 07:53:06 26° SW 08:00:50 10° S daylight
05 May - 23:10:21 10° S 23:16:31 19° SE 23:22:50 10° E visible
